Regional Weather Roundup
Issued by NWS Newport/Morehead, NC

Current Version | Previous Version | Text Only | Print | Product List | Glossary On
Versions: 1 2 3 4 5 6 7 8 9 10 11 12 13 14 15 16 17 18 19 20 21 22 23 24 25 26 27 28 29 30 31 32 33 34 35 36 37 38 39 40 41 42 43 44 45 46 47 48 49 50
846 ASUS42 KMHX 272113 RWRMHX WEATHER ROUNDUP FOR EASTERN NORTH CAROLINA NATIONAL WEATHER SERVICE NEWPORT/MOREHEAD CITY NC 500 PM EDT MON MAR 27 2017 NOTE: "FAIR" INDICATES FEW OR NO CLOUDS BELOW 12,000 FEET WITH NO SIGNIFICANT WEATHER AND/OR OBSTRUCTIONS TO VISIBILITY NCZ015>017-031-032-045>047-102-103-272200- NORTH COAST CITY SKY/WX TMP DP RH WIND PRES REMARKS EDENTON PTSUNNY 76 55 48 S6 30.03F ELIZABETH CITY PTSUNNY 75 54 47 SW13 30.02F KITTY HAWK NOT AVBL MANTEO MOSUNNY 68 56 65 S16G22 30.04F $$ NCZ045>047-081-094-103-104-272200- CENTRAL COAST CITY SKY/WX TMP DP RH WIND PRES REMARKS FRISCO SUNNY 74 55 51 SW9 30.06F $$ NCZ095-097-098-100-101-272200- SOUTHERN COAST CITY SKY/WX TMP DP RH WIND PRES REMARKS BEAUFORT SUNNY 73 57 57 S12 30.05F CEDAR ISLAND NOT AVBL JACKSONVILLE MOSUNNY 75 54 47 S13 30.03F PINEY ISLAND CLEAR N/A N/A N/A SW14 30.04F WILMINGTON MOSUNNY 76 55 48 S14 30.04F $$ NCZ011>013-027>030-043-044-078>080-089-090>093-098-272200- COASTAL PLAIN CITY SKY/WX TMP DP RH WIND PRES REMARKS AHOSKIE N/A 75 57 52 CALM 30.01F CLINTON MOSUNNY 78 59 50 SW7 30.01F ELIZABETHTOWN MOSUNNY 78 56 46 S7 30.01F GOLDSBORO PTSUNNY 79 55 43 SW9 29.99F GREENVILLE PTSUNNY 77 55 47 SW8 30.03F HAVELOCK NOT AVBL KENANSVILLE PTSUNNY 77 55 47 S5 30.02F KINSTON PTSUNNY 77 54 44 CALM 30.02F NEW BERN MOSUNNY 77 52 41 SW13 30.04F RICHLANDS PTSUNNY 75 56 51 VRB6 30.03F ROCKY MOUNT MOSUNNY 77 58 51 SW14 30.00F WASHINGTON MOSUNNY 77 54 45 SW10 30.02F WHITEVILLE SUNNY 77 55 45 SE12 30.02F $$ AMZ130-135-150-152-154-156-158-170-250-252-270-ANZ085-086-088-633-658-670-272200- MARINE OBSERVATIONS STATION/POSITION TIME TEMP WIND PRES WAVE SWELL AIR SEA DIR/SP/G HT/PER HT/PER (UTC) (F) (DEG/KT/KT) (MB) (FT/S) (FT/S) CHESAPEAKE LIGHT NOT AVBL 64 E VA BEACH 2050 56 51 160/ 8/ 10 1017.3 3/ 8 3/ 8 DUCK 2048 62 49 140/ 10/ 12 1016.4 2 E DUCK 2100 56 N/A 3/ 8 2/11 OREGON INLET 2042 68 56 170/ 9/ 12 1017.6 13E OREGON INLT 2048 53 N/A 4/ 9 3/ 9 HATTERAS CG 2048 71 61 180/ 5/ 11 1017.8 DIAMOND BUOY 2050 71 76 220/ 8/ 12 1018.5 4/10 3/10 CAPE LOOKOUT 2100 68 160/ 9/ 9 1017.6 BEAUFORT LAB 2048 70 60 170/ 8/ 10 1017.0 30 SE NEW RVR IN 2008 69 160/ 4/ 6 1018.9 30 SE NEW RVR IN 2043 68 N/A 3/11 2/11 27 SE WRIGHTSVLE 2008 71 66 170/ 4/ 8 1018.4 5 SE WRIGHTSVLE 2008 65 63 180/ 6/ 10 1018.2 225 S CAPE HAT 2050 69 73 80/ 6/ 8 1019.1 6/ 9 7/ 9 41 SE CHARLESTON 2050 72 75 200/ 6/ 8 1017.7 4/ 9 3/ 9 $$

USA.gov is the U.S. government's official web portal to all federal, state and local government web resources and services.